CZ-3B DEB, 40189

Orbit data source: Space-Track

CZ-3B DEB, 40189 is space debris in HEO originally from a launch on Mon, 19 Dec 2011 UTC launched from the Xichang Space Center, China (XSC). Debris objects in space refer to the collection of defunct objects orbiting the Earth. Examples of debris include non-operational satellites, rocket bodies, and fragments generated from explosions, collisions, or faulty payload assembly.

Loading next visibility...
Identifier
40189, 2011-077N
Orbit
HEO
Country
Flag of CNCN / PRC
Related business
Manufacturer
CALT
Mission
Spacecraft
Bus & Motor
Unknown
Mass
Unknown
Launch date (UTC)
2011-12-19 (15 years ago)
Launch vehicle
Unknown
Launch site
Xichang Space Center, China (XSC)
Object type
Payload
Rocket body
Debris
Shape & HBR
Unknown shape, 0.4 m
Radar Cross Section
Medium (>0.1 m² and <1 m²)

Expand to show TLE details & history
Last TLE update: 3 days ago

TLE from 3 days ago
0 CZ-3B DEB
1 40189U 11077N   26260.36294710 -.00000177  00000-0  47051-2 0  9991
2 40189  27.0434 353.5039 7369404  31.8484 356.4442  1.90409085 96080
Epoch: 2026-09-17T08:42Z
TLE epoch observation values (Epoch: 2026-09-17T08:42:38.629Z)
Latitude
-0.00014°
Longitude
-133.44544°
Altitude
1,326.334 km
Speed
9.432 km/s
True Right ascension
23h 34m 04s
True Declination
0° 00' 01"
Sunlit
Object was in full shadow at epoch
Visualization orbit readout
Latitude
Unknown
Longitude
Unknown
Altitude
Unknown
Speed
Unknown
Apparent Right ascension
Unknown
Apparent Declination
Unknown
Sunlit
N/A
Visualization observer readout
Local Sidereal Time
11:56:55
Azimuth
Unknown
Elevation
Unknown
Doppler factor
Unknown
Orbital elements
Apogee altitude
41,387.814 km
Perigee altitude
856.016 km
Semi-major axis
27,500.052 km
Eccentricity
0.73694
Inclination
27.0434°
RAAN
353.5039°
Arg. of periapsis
31.8484°
True anomaly
326.90464°
Mean anomaly
356.4442°
Eccentric anomaly
346.80853°
Mean motion
0.47593 °/min
Orbital period
756.41 mins
BSTAR
0.0047051
Loading maneuver chart data...
Computing Atmospheric mass density...
Loading historical data...
Loading historical data...
Loading historical data...
Loading historical data...
Loading historical data...
Loading historical data...
Loading historical data...

Documentation

Showing up to 5 results
|